DIRECTV 9S

Last updated on Fri Oct 11 2024 00:02:38 GMT+0000 (Coordinated Universal Time)

1 29494U 06043A 24284.52623291 -.00000108 00000+0 00000+0 0 9999 2 29494 0.8233 88.1881 0003088 116.4891 263.2108 1.00271355 45228
UTC large
Height (km)
Speed (km/s)
/
Latitude / Longitude
Inclination (degrees)
Orbital Period (minutes)
Azimuth
Elevation
Range (km)
Doppler Factor

Next 0 passes for location: London (51.5072 / 0.1276)

Sorry there are no passes over London.